{"data":{"norad_id":64208,"epoch":"2026-05-25T00:06:39.218112Z","epoch_age_seconds":74582,"freshness":"FRESH","line1":"1 64208U 25117F   26145.00462058  .00010624  00000+0  37027-3 0  9993","line2":"2 64208  53.1586  44.8637 0001194  78.0882 282.0252 15.30203820 55173","mean_motion":15.3020382,"eccentricity":0.0001194,"inclination_deg":53.1586,"raan_deg":44.8637,"arg_perigee_deg":78.0882,"mean_anomaly_deg":282.0252,"bstar":0.00037027,"rev_number":5517,"period_min":94.105110781909,"perigee_km":474.38537473638,"apogee_km":476.02195248685,"semimajor_km":6853.3406636116,"source":"CELESTRAK","updated_at":"2026-05-25T13:38:20.317574Z"}}